CW5306 Weather Reports


Display with metric or nautical units.
time (UTC)temp
F
wind
direction
speed
MPH
gust
MPH
rain 1hr
in
rain 24hr
in
rain mn
in
humidity
%
barometer
mb
20260503022942 78 99 7.0 15.0 0.00 0.00 0.00 73 1014.9
20260503022440 78 90 8.0 14.0 0.00 0.00 0.00 74 1014.7
20260503021941 77 91 8.0 14.0 0.00 0.00 0.00 73 1014.9
20260503021442 78 98 5.0 15.0 0.00 0.00 0.00 73 1014.5
20260503020941 77 132 4.0 15.0 0.00 0.00 0.00 74 1014.9
20260503020441 77 120 4.0 17.0 0.00 0.00 0.00 74 1014.8
20260503020211 77 96 5.0 17.0 0.00 0.00 0.00 74 1014.5
20260503015711 77 96 6.0 17.0 0.00 0.00 0.00 74 1014.7
20260503014941 77 76 8.0 17.0 0.00 0.00 0.00 74 1014.5
20260503014711 77 78 5.0 17.0 0.00 0.00 0.00 75 1014.7
20260503013929 77 91 4.0 20.0 0.00 0.00 0.00 74 1014.7
20260503013428 78 72 7.0 20.0 0.00 0.00 0.00 72 1014.3
20260503012929 78 93 9.0 20.0 0.00 0.00 0.00 71 1014.5
20260503012428 78 78 8.0 20.0 0.00 0.00 0.00 74 1014.4
20260503011928 78 104 9.0 20.0 0.00 0.00 0.00 75 1014.5
20260503011428 77 110 4.0 20.0 0.00 0.00 0.00 75 1014.5
20260503010928 77 127 11.0 21.0 0.00 0.00 0.00 74 1014.6
20260503010647 78 69 11.0 21.0 0.00 0.00 0.00 73 1014.6
20260503010148 78 76 8.0 19.0 0.00 0.00 0.00 72 1014.8
20260503005648 78 90 8.0 19.0 0.00 0.00 0.00 74 1014.6
20260503004917 78 107 6.0 17.0 0.00 0.00 0.00 74 1015.0
20260503004417 78 68 10.0 17.0 0.00 0.00 0.00 73 1015.0
20260503003917 78 118 8.0 16.0 0.00 0.00 0.00 73 1014.8
20260503003417 79 136 8.0 16.0 0.00 0.00 0.00 71 1014.9
20260503002906 79 81 5.0 19.0 0.00 0.00 0.00 71 1014.7
20260503002637 79 54 6.0 19.0 0.00 0.00 0.00 71 1015.1
20260503001906 79 75 10.0 20.0 0.00 0.00 0.00 71 1015.2
20260503001405 79 111 9.0 20.0 0.00 0.00 0.00 73 1015.2
20260503001136 79 72 6.0 20.0 0.00 0.00 0.00 71 1015.1
20260503000407 79 48 10.0 17.0 0.00 0.00 0.00 72 1015.2
20260502235905 80 109 6.0 17.0 0.00 0.00 0.00 73 1015.3
20260502235353 79 85 9.0 17.0 0.00 0.00 0.00 71 1015.4
20260502234852 79 120 7.0 16.0 0.00 0.00 0.00 71 1015.4
20260502234624 79 68 11.0 16.0 0.00 0.00 0.00 70 1015.8
20260502233854 79 70 9.0 17.0 0.00 0.00 0.00 71 1015.8
20260502233353 79 66 10.0 16.0 0.00 0.00 0.00 70 1016.0
20260502232854 79 90 4.0 16.0 0.00 0.00 0.00 71 1016.1
20260502232352 80 87 4.0 16.0 0.00 0.00 0.00 71 1015.9
20260502231852 80 101 7.0 17.0 0.00 0.00 0.00 72 1016.2
20260502231353 79 60 11.0 19.0 0.00 0.00 0.00 71 1016.2
20260502230855 80 90 8.0 19.0 0.00 0.00 0.00 69 1016.1
20260502230353 80 88 9.0 17.0 0.00 0.00 0.00 68 1016.5
20260502225852 80 113 10.0 16.0 0.00 0.00 0.00 69 1016.5
20260502225359 79 128 11.0 19.0 0.00 0.00 0.00 70 1016.6
20260502225353 80 92 8.0 19.0 0.00 0.00 0.00 70 1016.4
20260502224623 79 63 6.0 17.0 0.00 0.00 0.00 72 1016.7
20260502223854 79 75 8.0 19.0 0.00 0.00 0.00 71 1016.8
20260502223354 79 92 6.0 19.0 0.00 0.00 0.00 71 1016.8
20260502222853 80 97 7.0 15.0 0.00 0.00 0.00 68 1016.8
20260502222401 80 59 6.0 19.0 0.00 0.00 0.00 67 1017.1
20260502222352 80 76 11.0 16.0 0.00 0.00 0.00 68 1017.1
20260502221853 80 119 11.0 19.0 0.00 0.00 0.00 65 1017.0
20260502220852 80 100 14.0 20.0 0.00 0.00 0.00 66 1017.4
20260502220623 80 81 9.0 20.0 0.00 0.00 0.00 68 1017.3
20260502220123 80 60 10.0 17.0 0.00 0.00 0.00 67 1017.2
20260502215352 80 57 9.0 17.0 0.00 0.00 0.00 68 1017.2
20260502214851 80 63 10.0 17.0 0.00 0.00 0.00 68 1017.3
20260502214623 80 98 4.0 20.0 0.00 0.00 0.00 67 1017.2
20260502213852 79 93 8.0 20.0 0.00 0.00 0.00 67 1017.4
20260502213622 79 55 8.0 16.0 0.00 0.00 0.00 66 1017.1
20260502212852 80 82 13.0 17.0 0.00 0.00 0.00 66 1017.5
20260502212352 79 117 7.0 20.0 0.00 0.00 0.00 67 1017.5
20260502211851 79 124 13.0 20.0 0.00 0.00 0.00 68 1017.6
20260502211353 79 101 11.0 19.0 0.00 0.00 0.00 68 1017.5
20260502211122 79 61 6.0 19.0 0.00 0.00 0.00 69 1017.4
20260502210622 79 104 7.0 19.0 0.00 0.00 0.00 69 1017.4
20260502205851 79 73 5.0 17.0 0.00 0.00 0.00 70 1017.4
20260502205352 79 118 11.0 17.0 0.00 0.00 0.00 66 1017.4
20260502204852 80 108 9.0 19.0 0.00 0.00 0.00 66 1017.3
20260502204352 80 117 7.0 19.0 0.00 0.00 0.00 68 1017.6
20260502203852 79 65 8.0 16.0 0.00 0.00 0.00 69 1017.3
20260502203352 79 118 5.0 20.0 0.00 0.00 0.00 69 1017.3
20260502202852 79 128 6.0 23.0 0.00 0.00 0.00 69 1017.3
20260502202351 79 83 7.0 23.0 0.00 0.00 0.00 69 1017.5
20260502201851 79 102 9.0 17.0 0.00 0.00 0.00 70 1017.3
20260502201351 79 89 11.0 17.0 0.00 0.00 0.00 69 1017.6
20260502200851 79 97 6.0 17.0 0.00 0.00 0.00 70 1017.4
20260502200352 78 97 7.0 21.0 0.00 0.00 0.00 70 1017.5
20260502200123 78 115 13.0 21.0 0.00 0.00 0.00 71 1017.3
20260502195351 78 98 7.0 19.0 0.00 0.00 0.00 73 1017.4
20260502195124 78 126 7.0 19.0 0.00 0.00 0.00 70 1017.6
20260502194354 78 112 8.0 21.0 0.00 0.00 0.00 70 1017.4
20260502193852 79 113 10.0 21.0 0.00 0.00 0.00 69 1017.6
20260502193352 78 80 9.0 17.0 0.00 0.00 0.00 70 1017.5
20260502192851 79 108 4.0 16.0 0.00 0.00 0.00 71 1017.3
20260502192351 78 118 8.0 16.0 0.00 0.00 0.00 71 1017.4
20260502191852 78 60 6.0 16.0 0.00 0.00 0.00 71 1017.3
20260502191352 79 133 3.0 16.0 0.00 0.00 0.00 70 1017.3
20260502190851 78 93 10.0 16.0 0.00 0.00 0.00 70 1017.7
20260502190351 78 85 4.0 17.0 0.00 0.00 0.00 71 1017.6
20260502185852 78 121 8.0 17.0 0.00 0.00 0.00 71 1017.5
20260502185353 77 72 5.0 17.0 0.00 0.00 0.00 73 1017.5
20260502185124 77 84 11.0 16.0 0.00 0.00 0.00 74 1017.5
20260502184352 77 65 8.0 17.0 0.00 0.00 0.00 72 1017.7
20260502183852 77 93 4.0 19.0 0.00 0.00 0.00 72 1017.7
20260502183351 77 88 4.0 19.0 0.00 0.00 0.00 70 1017.5
20260502182852 77 94 8.0 20.0 0.00 0.00 0.00 71 1017.5
20260502182351 77 104 6.0 20.0 0.00 0.00 0.00 71 1017.5
20260502181851 77 76 9.0 17.0 0.00 0.00 0.00 72 1017.5
20260502181623 77 58 3.0 14.0 0.00 0.00 0.00 74 1017.6
20260502180851 77 119 7.0 16.0 0.00 0.00 0.00 73 1017.5
20260502180352 76 133 8.0 16.0 0.00 0.00 0.00 73 1017.6
20260502170339 74 107 7.0 15.0 0.00 0.00 0.00 74 1016.9
20260502164328 74 72 9.0 17.0 0.00 0.00 0.00 74 1016.6
20260502163827 73 78 8.0 15.0 0.00 0.00 0.00 76 1016.9
20260502163327 73 98 6.0 15.0 0.00 0.00 0.00 76 1016.8
20260502162828 73 101 6.0 15.0 0.00 0.00 0.00 78 1016.7
20260502162328 73 119 7.0 14.0 0.00 0.00 0.00 77 1016.7
20260502161827 73 81 7.0 16.0 0.00 0.00 0.00 77 1016.8
20260502161328 73 121 11.0 16.0 0.00 0.00 0.00 77 1016.6
20260502160815 73 140 5.0 17.0 0.00 0.00 0.00 77 1016.6
20260502160316 73 105 6.0 17.0 0.00 0.00 0.00 77 1016.7
20260502152253 73 91 7.0 15.0 0.00 0.00 0.00 78 1016.4
20260502152023 73 57 6.0 16.0 0.00 0.00 0.00 78 1016.4
20260502151252 73 108 3.0 16.0 0.00 0.00 0.00 78 1016.6
20260502150752 73 98 5.0 14.0 0.00 0.00 0.00 77 1016.3
20260502150251 73 88 6.0 13.0 0.00 0.00 0.00 78 1016.5
20260502130252 73 91 4.0 15.0 0.00 0.02 0.00 75 1016.7
20260502123240 73 127 5.0 16.0 0.00 0.02 0.00 77 1017.0
20260502122739 73 115 3.0 16.0 0.00 0.02 0.00 77 1017.0
20260502122240 73 40 5.0 15.0 0.00 0.02 0.00 77 1017.0
20260502121740 73 123 11.0 15.0 0.00 0.02 0.00 76 1017.1
20260502121511 73 67 10.0 15.0 0.00 0.02 0.00 76 1017.0
20260502120740 73 126 8.0 15.0 0.00 0.02 0.00 76 1017.3
20260502120240 73 102 10.0 14.0 0.00 0.02 0.00 76 1017.4
20260502115738 73 92 5.0 15.0 0.00 0.02 0.00 76 1017.5
20260502115239 73 80 6.0 15.0 0.00 0.02 0.00 75 1017.3
20260502114739 73 114 3.0 15.0 0.00 0.02 0.00 76 1017.3
20260502114238 73 125 4.0 16.0 0.00 0.02 0.00 77 1017.5
20260502113738 73 111 8.0 16.0 0.00 0.02 0.00 78 1017.7
20260502113510 73 145 5.0 14.0 0.00 0.02 0.00 79 1017.4
20260502112740 73 90 8.0 14.0 0.00 0.02 0.00 77 1017.4
20260502112238 73 86 8.0 14.0 0.00 0.02 0.00 76 1017.6
20260502111739 73 125 6.0 16.0 0.00 0.02 0.00 77 1017.7
20260502111240 73 124 8.0 16.0 0.00 0.02 0.00 77 1017.7
20260502110739 73 107 6.0 15.0 0.00 0.02 0.00 77 1017.6
20260502110238 73 100 8.0 15.0 0.00 0.02 0.00 80 1017.7
20260502105739 73 125 8.0 14.0 0.00 0.02 0.00 80 1017.8
20260502105238 73 92 7.0 15.0 0.00 0.02 0.00 80 1018.1
20260502105009 73 121 6.0 15.0 0.00 0.02 0.00 80 1018.2
20260502104240 73 110 3.0 19.0 0.00 0.02 0.00 79 1018.0
20260502103739 73 101 7.0 19.0 0.00 0.02 0.00 79 1017.9
20260502103510 73 90 5.0 13.0 0.00 0.02 0.00 80 1017.9
20260502102739 73 95 7.0 19.0 0.00 0.02 0.00 80 1018.1
20260502102240 73 89 9.0 19.0 0.00 0.02 0.00 79 1018.1
20260502101738 73 99 5.0 14.0 0.00 0.02 0.00 79 1018.1
20260502101509 73 89 5.0 16.0 0.00 0.02 0.00 78 1018.2
20260502100738 73 105 11.0 16.0 0.00 0.02 0.00 77 1018.3
20260502100509 74 98 5.0 19.0 0.00 0.02 0.00 78 1018.1
20260502091239 74 90 6.0 16.0 0.00 0.03 0.02 77 1018.6
20260502091009 74 82 4.0 17.0 0.00 0.03 0.02 77 1018.4
20260502090239 74 83 8.0 17.0 0.00 0.03 0.02 78 1018.5
20260502071153 75 91 9.0 15.0 0.00 0.03 0.02 75 1018.4
20260502070922 75 157 7.0 15.0 0.00 0.03 0.02 73 1018.6
20260502070151 75 86 6.0 17.0 0.00 0.03 0.02 75 1018.3
20260502065921 75 81 6.0 17.0 0.00 0.03 0.02 76 1018.4
20260502065151 75 86 5.0 15.0 0.00 0.03 0.02 77 1018.4
20260502064651 75 82 4.0 15.0 0.00 0.03 0.02 77 1018.4
20260502064151 75 104 7.0 14.0 0.00 0.03 0.02 77 1018.3
20260502063650 75 110 6.0 14.0 0.00 0.03 0.02 77 1018.1
20260502063421 75 66 8.0 14.0 0.00 0.03 0.02 77 1018.1
20260502062650 75 73 8.0 14.0 0.00 0.03 0.02 77 1018.1
20260502062150 75 94 6.0 15.0 0.00 0.03 0.02 77 1018.1
20260502061651 75 100 4.0 15.0 0.00 0.03 0.02 77 1018.0
20260502061424 75 109 7.0 16.0 0.00 0.03 0.02 76 1017.9
20260502060921 75 115 6.0 19.0 0.00 0.03 0.02 76 1017.9
20260502060138 74 106 11.0 19.0 0.00 0.03 0.02 76 1017.7
20260502055638 74 94 6.0 13.0 0.00 0.03 0.02 77 1017.8
20260502055138 74 34 4.0 17.0 0.00 0.03 0.02 76 1017.6
20260502054638 74 120 4.0 17.0 0.00 0.03 0.02 76 1017.7
20260502054138 75 108 4.0 20.0 0.00 0.03 0.02 78 1017.5
20260502053910 75 84 6.0 20.0 0.00 0.03 0.02 77 1017.4
20260502053140 75 84 6.0 15.0 0.00 0.03 0.02 77 1017.6
20260502052639 75 85 9.0 20.0 0.00 0.03 0.02 75 1017.4
20260502052139 75 88 4.0 20.0 0.00 0.03 0.02 76 1017.2
20260502051640 75 112 9.0 17.0 0.00 0.03 0.02 76 1017.3
20260502051410 75 84 9.0 17.0 0.00 0.03 0.02 76 1017.3
20260502050640 75 94 6.0 19.0 0.00 0.03 0.02 74 1017.2
20260502050138 75 52 8.0 19.0 0.00 0.03 0.02 74 1017.1
20260502045639 75 111 9.0 16.0 0.00 0.03 0.02 73 1016.9
20260502045139 75 99 8.0 16.0 0.00 0.03 0.02 74 1017.1
20260502044910 75 94 8.0 16.0 0.00 0.03 0.02 74 1016.8
20260502044409 75 97 8.0 16.0 0.00 0.03 0.02 75 1016.9
20260502043639 76 74 13.0 16.0 0.00 0.03 0.02 74 1016.9
20260502043138 76 122 5.0 15.0 0.00 0.03 0.02 75 1017.0
20260502042638 75 126 8.0 21.0 0.00 0.03 0.02 75 1016.9
20260502042139 76 51 14.0 21.0 0.00 0.03 0.02 75 1016.7
20260502041639 76 126 5.0 17.0 0.00 0.03 0.02 75 1016.7
20260502041140 76 75 3.0 19.0 0.00 0.03 0.02 75 1016.7
20260502040638 76 105 9.0 19.0 0.00 0.03 0.02 73 1016.3
20260502040138 76 96 8.0 16.0 0.00 0.03 0.02 74 1016.7
20260502035638 76 61 8.0 16.0 0.00 0.03 0.02 74 1016.7
20260502035138 76 113 10.0 17.0 0.00 0.03 0.02 74 1016.4
20260502034638 76 139 5.0 17.0 0.00 0.03 0.02 74 1016.6
20260502034139 76 109 8.0 21.0 0.00 0.03 0.02 72 1016.6
20260502033639 76 83 8.0 21.0 0.00 0.03 0.02 74 1016.5
20260502033138 76 112 6.0 20.0 0.00 0.03 0.02 75 1016.3
20260502032639 76 93 6.0 20.0 0.00 0.03 0.02 74 1016.2
20260502032138 77 82 8.0 17.0 0.00 0.03 0.02 73 1016.3
20260502031640 77 115 10.0 17.0 0.00 0.03 0.02 72 1016.2
20260502031409 76 71 13.0 16.0 0.00 0.03 0.02 73 1016.1
20260502030639 76 129 6.0 17.0 0.00 0.03 0.02 72 1016.3
20260502030140 77 95 13.0 20.0 0.00 0.03 0.02 73 1016.2
20260502025640 77 108 6.0 20.0 0.00 0.03 0.02 70 1016.0
20260502025140 77 62 14.0 19.0 0.00 0.03 0.02 72 1016.0
20260502024638 77 107 11.0 17.0 0.00 0.03 0.02 70 1016.1
20260502024139 77 84 8.0 17.0 0.00 0.03 0.02 72 1016.0
20260502023639 77 60 12.0 17.0 0.00 0.03 0.02 74 1016.0